Showing default

BRO-16, 62654

Orbit data source: Space-Track

BRO-16, 62654 is a payload satellite owned by Unseen Labs (FR) in SSO that was launched on Tue, 14 Jan 2025 UTC via an FALCON 9 launch vehicle from the Air Force Western Test Range (AFWTR). Payload-class satellites include a variety of spacecraft equipped with specific instruments for various scientific and technological missions. These include communications satellites like Starlink; space stations such as the ISS; scientific satellites like the Hubble; Earth observation satellites from companies like Planet Labs, Umbra, and HawkEye 360; GPS; miniature CubeSats for education and research; and military/defense satellites.

Loading next visibility...
Identifier
62654, 2025-009AX
Orbit
SSO
Country
Flag of FRFR
Related business
Manufacturer
GOMSpace
Mission
Operational Commercial Sigint
Bus & Motor
CUBESAT 8U, Unknown motor
Mass
15 kg wet, ~15 kg dry
Launch date (UTC)
2025-01-14 (1 year ago)
Launch vehicle
FALCON 9
Launch site
Air Force Western Test Range (AFWTR)
Object type
Payload
Rocket body
Debris
Shape & HBR
Box, 0.6 m
Radar Cross Section
0.100 m², Medium (>0.1 m² and < 1m²)

Expand to show TLE details & history
Last TLE update: 1 day ago

TLE from 1 day ago
0 BRO-16
1 62654U 25009AX  26034.20819292  .00004909  00000-0  21399-3 0  9996
2 62654  97.4160 116.4198 0003215  70.9937 289.1648 15.22640699 58407
Epoch: 2026-02-03T04:59Z
TLE epoch observation values (Epoch: 2026-02-03T04:59:47.868Z)
Latitude
0.00002°
Longitude
-91.92208°
Altitude
500.247 km
Speed
7.615 km/s
True Right ascension
07h 45m 40s
True Declination
0° 00' 00"
Sunlit
Object was in full shadow at epoch
Visualization orbit readout
Latitude
Unknown
Longitude
Unknown
Altitude
Unknown
Speed
Unknown
Apparent Right ascension
Unknown
Apparent Declination
Unknown
Sunlit
N/A
Visualization observer readout
Local Sidereal Time
07:10:56
Azimuth
Unknown
Elevation
Unknown
Doppler factor
Unknown
Orbital elements
Apogee altitude
497.052 km
Perigee altitude
492.632 km
Semi-major axis
6,872.979 km
Eccentricity
0.00032
Inclination
97.416°
RAAN
116.4198°
Arg. of periapsis
70.9937°
True anomaly
289.13°
Mean anomaly
289.1648°
Eccentric anomaly
289.1474°
Mean motion
3.80913 °/min
Orbital period
94.51 mins
BSTAR
0.00021399
Loading maneuver chart data...
Computing Atmospheric mass density...
Loading historical data...
Loading historical data...
Loading historical data...
Loading historical data...
Loading historical data...
Loading historical data...
Loading historical data...

Documentation

Showing up to 5 results
|